,,,PA_Meas_PMT16A,,PR_Meas_QMR101_102,,RH_Meas_QMH101,,SR_Meas_QMS101,,TA_Meas_QMH101,,GenWind,,GenWind,
date,time,status,PA,status,PR,status,RH,status,SR,status,TA,status,DirAvg,status,SpdAvg,
2011-12-06, 00:00:04,VALID,1000.81,VALID,0,VALID,91.4715,VALID,0,VALID,23.7402,VALID,326,VALID,1.27969,
2011-12-06, 00:01:04,VALID,1000.79,VALID,0,VALID,91.4868,VALID,0,VALID,23.7402,VALID,341,VALID,1.73008,
2011-12-06, 00:02:04,VALID,1000.79,VALID,0,VALID,91.4639,VALID,0,VALID,23.7384,VALID,352,VALID,1.22695,
2011-12-06, 00:03:04,VALID,1000.78,VALID,0,VALID,91.3723,VALID,0,VALID,23.7597,VALID,344,VALID,1.13203,
2011-12-06, 00:04:04,VALID,1000.79,VALID,0,VALID,91.3647,VALID,0,VALID,23.7384,VALID,313,VALID,1.60898,
2011-12-06, 00:05:04,VALID,1000.78,VALID,0,VALID,91.4105,VALID,0,VALID,23.7384,VALID,330,VALID,0.987891,
2011-12-06, 00:06:04,VALID,1000.8,VALID,0,VALID,91.5478,VALID,0,VALID,23.7402,VALID,313,VALID,0.776172,
2011-12-06, 00:07:04,VALID,1000.78,VALID,0,VALID,91.5631,VALID,0,VALID,23.7402,VALID,314,VALID,0.669141,
2011-12-06, 00:08:04,VALID,1000.77,VALID,0,VALID,91.6699,VALID,0,VALID,23.7207,VALID,314,VALID,0.409375,
2011-12-06, 00:09:04,VALID,1000.77,VALID,0,VALID,91.7385,VALID,0,VALID,23.6799,VALID,332,VALID,1.33789,
2011-12-06, 00:10:04,VALID,1000.78,VALID,0,VALID,91.7309,VALID,0,VALID,23.6799,VALID,300,VALID,0.623438,
2011-12-06, 00:11:04,VALID,1000.76,VALID,0,VALID,91.7385,VALID,0,VALID,23.7189,VALID,286,VALID,0.754687,
2011-12-06, 00:12:04,VALID,1000.74,VALID,0,VALID,91.7233,VALID,0,VALID,23.6994,VALID,331,VALID,0.851172,
2011-12-06, 00:13:04,VALID,1000.75,VALID,0,VALID,91.6699,VALID,0,VALID,23.7189,VALID,262,VALID,0.441406,
2011-12-06, 00:14:04,VALID,1000.77,VALID,0,VALID,91.647,VALID,0,VALID,23.6994,VALID,289,VALID,0.946484,
2011-12-06, 00:15:04,VALID,1000.76,VALID,0,VALID,91.7309,VALID,0,VALID,23.7207,VALID,313,VALID,0.747266,
2011-12-06, 00:16:04,VALID,1000.75,VALID,0,VALID,91.7538,VALID,0,VALID,23.6799,VALID,311,VALID,1.05,
2011-12-06, 00:17:04,VALID,1000.71,VALID,0,VALID,91.7614,VALID,0,VALID,23.7012,VALID,316,VALID,0.150391,
2011-12-06, 00:18:04,VALID,1000.71,VALID,0,VALID,91.7767,VALID,0,VALID,23.6799,VALID,316,VALID,0.430859,
2011-12-06, 00:19:04,VALID,1000.7,VALID,0,VALID,91.8148,VALID,0,VALID,23.6817,VALID,304,VALID,0.541016,
2011-12-06, 00:20:04,VALID,1000.67,VALID,0,VALID,91.7843,VALID,0,VALID,23.6799,VALID,315,VALID,1.20664,
2011-12-06, 00:21:04,VALID,1000.64,VALID,0,VALID,91.7538,VALID,0,VALID,23.7012,VALID,307,VALID,0.440625,
2011-12-06, 00:22:04,VALID,1000.59,VALID,0,VALID,91.7385,VALID,0,VALID,23.6994,VALID,289,VALID,0.726172,
2011-12-06, 00:23:04,VALID,1000.53,VALID,0,VALID,91.7385,VALID,0,VALID,23.7012,VALID,231,VALID,0.731641,
2011-12-06, 00:24:04,VALID,1000.48,VALID,0,VALID,91.7309,VALID,0,VALID,23.6799,VALID,236,VALID,0.0152344,
2011-12-06, 00:25:04,VALID,1000.46,VALID,0,VALID,91.792,VALID,0,VALID,23.6604,VALID,236,VALID,0.0890625,
2011-12-06, 00:26:04,VALID,1000.4,VALID,0,VALID,91.853,VALID,0,VALID,23.6409,VALID,234,VALID,0.642578,
2011-12-06, 00:27:04,VALID,1000.42,VALID,0,VALID,91.9217,VALID,0,VALID,23.6427,VALID,233,VALID,0.504687,
2011-12-06, 00:28:04,VALID,1000.39,VALID,0,VALID,91.9751,VALID,0,VALID,23.6409,VALID,232,VALID,0.571094,
2011-12-06, 00:29:04,VALID,1000.36,VALID,0,VALID,91.998,VALID,0,VALID,23.6214,VALID,209,VALID,0.426953,
2011-12-06, 00:30:04,VALID,1000.3,VALID,0,VALID,92.059,VALID,0,VALID,23.6232,VALID,209,VALID,0.311719,
2011-12-06, 00:31:04,VALID,1000.26,VALID,0,VALID,92.0895,VALID,0,VALID,23.6214,VALID,207,VALID,0.644922,
2011-12-06, 00:32:04,VALID,1000.22,VALID,0,VALID,92.0666,VALID,0,VALID,23.6427,VALID,202,VALID,0.567969,
2011-12-06, 00:33:04,VALID,1000.19,VALID,0,VALID,92.059,VALID,0,VALID,23.6622,VALID,202,VALID,0.408594,
2011-12-06, 00:34:04,VALID,1000.15,VALID,0,VALID,92.0132,VALID,0,VALID,23.6622,VALID,202,VALID,0.439063,
2011-12-06, 00:35:04,VALID,1000.13,VALID,0,VALID,92.0285,VALID,0,VALID,23.6427,VALID,198,VALID,0.402734,
2011-12-06, 00:36:04,VALID,1000.07,VALID,0,VALID,91.9751,VALID,0,VALID,23.6427,VALID,212,VALID,0.804297,
2011-12-06, 00:37:04,VALID,1000.07,VALID,0,VALID,91.8148,VALID,0,VALID,23.7012,VALID,204,VALID,0.742188,
2011-12-06, 00:38:04,VALID,1000.08,VALID,0,VALID,91.6851,VALID,0,VALID,23.7012,VALID,200,VALID,0.778125,
2011-12-06, 00:39:04,VALID,1000.02,VALID,0,VALID,91.5936,VALID,0,VALID,23.7012,VALID,212,VALID,0.530469,
2011-12-06, 00:40:04,VALID,1000.01,VALID,0,VALID,91.6165,VALID,0,VALID,23.6799,VALID,212,VALID,0.238281,
2011-12-06, 00:41:04,VALID,1000,VALID,0,VALID,91.5936,VALID,0,VALID,23.6604,VALID,212,VALID,0.263672,
2011-12-06, 00:42:04,VALID,999.984,VALID,0,VALID,91.6241,VALID,0,VALID,23.6817,VALID,212,VALID,0.285547,
2011-12-06, 00:43:04,VALID,999.951,VALID,0,VALID,91.6165,VALID,0,VALID,23.6799,VALID,212,VALID,0.282422,
2011-12-06, 00:44:04,VALID,999.939,VALID,0,VALID,91.6394,VALID,0,VALID,23.6817,VALID,212,VALID,0.716797,
2011-12-06, 00:45:04,VALID,999.936,VALID,0,VALID,91.6165,VALID,0,VALID,23.7012,VALID,212,VALID,0.674219,
2011-12-06, 00:46:04,VALID,999.91,VALID,0,VALID,91.5554,VALID,0.104696,VALID,23.6994,VALID,206,VALID,0.674219,
2011-12-06, 00:47:04,VALID,999.873,VALID,0,VALID,91.4868,VALID,0,VALID,23.7189,VALID,196,VALID,1.08633,
2011-12-06, 00:48:04,VALID,999.855,VALID,0,VALID,91.38,VALID,0,VALID,23.7579,VALID,197,VALID,0.578125,
2011-12-06, 00:49:04,VALID,999.861,VALID,0,VALID,91.3723,VALID,0,VALID,23.7988,VALID,191,VALID,0.937109,
2011-12-06, 00:50:04,VALID,999.804,VALID,0,VALID,91.3037,VALID,0,VALID,23.8183,VALID,191,VALID,0.666406,
2011-12-06, 00:51:04,VALID,999.814,VALID,0,VALID,91.2197,VALID,0,VALID,23.8183,VALID,176,VALID,0.829687,
2011-12-06, 00:52:04,VALID,999.742,VALID,0,VALID,91.1816,VALID,0,VALID,23.8378,VALID,180,VALID,0.930859,
2011-12-06, 00:53:04,VALID,999.75,VALID,0,VALID,91.2426,VALID,0,VALID,23.836,VALID,175,VALID,1.14492,
2011-12-06, 00:54:04,VALID,999.738,VALID,0,VALID,91.4105,VALID,0,VALID,23.8768,VALID,164,VALID,0.991016,
2011-12-06, 00:55:04,VALID,999.743,VALID,0,VALID,91.5707,VALID,0,VALID,23.836,VALID,157,VALID,1.05039,
2011-12-06, 00:56:04,VALID,999.732,VALID,0,VALID,91.7309,VALID,0,VALID,23.8165,VALID,156,VALID,0.971484,
2011-12-06, 00:57:04,VALID,999.718,VALID,0,VALID,91.9445,VALID,0,VALID,23.8183,VALID,156,VALID,0.544531,
2011-12-06, 00:58:04,VALID,999.713,VALID,0,VALID,92.1048,VALID,0,VALID,23.7579,VALID,150,VALID,0.885938,
2011-12-06, 00:59:04,VALID,999.669,VALID,0,VALID,92.2879,VALID,0,VALID,23.7402,VALID,140,VALID,0.523828,
2011-12-06, 01:00:04,VALID,999.649,VALID,0,VALID,92.3718,VALID,0,VALID,23.6604,VALID,142,VALID,0.846875,
2011-12-06, 01:01:04,VALID,999.653,VALID,0,VALID,92.5091,VALID,0,VALID,23.6019,VALID,152,VALID,0.519922,
2011-12-06, 01:02:04,VALID,999.691,VALID,0,VALID,92.5702,VALID,0,VALID,23.5433,VALID,147,VALID,0.507422,
2011-12-06, 01:03:04,VALID,999.67,VALID,0,VALID,92.6541,VALID,0,VALID,23.5256,VALID,147,VALID,0.278906,
2011-12-06, 01:04:04,VALID,999.656,VALID,0,VALID,92.7304,VALID,0,VALID,23.4458,VALID,144,VALID,0.703516,
2011-12-06, 01:05:04,VALID,999.641,VALID,0,VALID,92.8372,VALID,0,VALID,23.4475,VALID,113,VALID,0.475781,
2011-12-06, 01:06:04,VALID,999.645,VALID,0.5,VALID,92.9211,VALID,0,VALID,23.3872,VALID,113,VALID,0.104687,
2011-12-06, 01:07:04,VALID,999.622,VALID,0,VALID,93.0127,VALID,0,VALID,23.389,VALID,113,VALID,0.269141,
2011-12-06, 01:08:04,VALID,999.641,VALID,0,VALID,93.0814,VALID,0,VALID,23.3695,VALID,113,VALID,0.00234375,
2011-12-06, 01:09:04,VALID,999.622,VALID,0,VALID,93.1882,VALID,0,VALID,23.35,VALID,113,VALID,0.219141,
2011-12-06, 01:10:04,VALID,999.572,VALID,0,VALID,93.2797,VALID,0,VALID,23.3305,VALID,113,VALID,0.160156,
2011-12-06, 01:11:04,VALID,999.567,VALID,0,VALID,93.3484,VALID,0,VALID,23.311,VALID,113,VALID,0,
2011-12-06, 01:12:04,VALID,999.524,VALID,0.5,VALID,93.4094,VALID,0,VALID,23.2702,VALID,113,VALID,0,
2011-12-06, 01:13:04,VALID,999.564,VALID,0,VALID,93.4705,VALID,0,VALID,23.2915,VALID,113,VALID,0,
2011-12-06, 01:14:04,VALID,999.559,VALID,0,VALID,93.5239,VALID,0,VALID,23.2915,VALID,113,VALID,0,
2011-12-06, 01:15:04,VALID,999.562,VALID,0,VALID,93.5544,VALID,0,VALID,23.2507,VALID,113,VALID,0,
2011-12-06, 01:16:04,VALID,999.527,VALID,0,VALID,93.6383,VALID,0,VALID,23.2719,VALID,113,VALID,0.0777344,
2011-12-06, 01:17:04,VALID,999.523,VALID,0,VALID,93.646,VALID,0,VALID,23.2524,VALID,113,VALID,0.482031,
2011-12-06, 01:18:04,VALID,999.51,VALID,0,VALID,93.6765,VALID,0,VALID,23.2524,VALID,113,VALID,0.557813,
2011-12-06, 01:19:04,VALID,999.509,VALID,0,VALID,93.7223,VALID,0,VALID,23.2329,VALID,113,VALID,0.610156,
2011-12-06, 01:20:04,VALID,999.491,VALID,0,VALID,93.7375,VALID,0,VALID,23.1921,VALID,113,VALID,0.514063,
2011-12-06, 01:21:04,VALID,999.509,VALID,0,VALID,93.768,VALID,0,VALID,23.1921,VALID,113,VALID,0.510156,
2011-12-06, 01:22:04,VALID,999.506,VALID,0,VALID,93.7833,VALID,0,VALID,23.2134,VALID,51,VALID,0.468359,
2011-12-06, 01:23:04,VALID,999.49,VALID,0,VALID,93.8291,VALID,0,VALID,23.2134,VALID,51,VALID,0.510156,
2011-12-06, 01:24:04,VALID,999.48,VALID,0,VALID,93.8596,VALID,0,VALID,23.2134,VALID,51,VALID,0.478125,
2011-12-06, 01:25:04,VALID,999.501,VALID,0,VALID,93.8672,VALID,0,VALID,23.2134,VALID,28,VALID,0.764063,
2011-12-06, 01:26:04,VALID,999.479,VALID,0,VALID,93.8901,VALID,0,VALID,23.1939,VALID,28,VALID,0.7375,
2011-12-06, 01:27:04,VALID,999.475,VALID,0,VALID,93.913,VALID,0,VALID,23.1939,VALID,28,VALID,0.484375,
2011-12-06, 01:28:04,VALID,999.438,VALID,0,VALID,93.9206,VALID,0,VALID,23.1726,VALID,28,VALID,0.101563,
2011-12-06, 01:29:04,VALID,999.406,VALID,0,VALID,93.9359,VALID,0,VALID,23.2134,VALID,28,VALID,0,
2011-12-06, 01:30:04,VALID,999.378,VALID,0,VALID,93.9588,VALID,0,VALID,23.1939,VALID,28,VALID,0,
2011-12-06, 01:31:04,VALID,999.386,VALID,0,VALID,93.974,VALID,0,VALID,23.2329,VALID,28,VALID,0,
2011-12-06, 01:32:04,VALID,999.381,VALID,0,VALID,93.974,VALID,0,VALID,23.2524,VALID,28,VALID,0,
2011-12-06, 01:33:04,VALID,999.377,VALID,0,VALID,94.0122,VALID,0,VALID,23.2524,VALID,28,VALID,0,
2011-12-06, 01:34:04,VALID,999.324,VALID,0,VALID,94.0274,VALID,0,VALID,23.2507,VALID,28,VALID,0,
2011-12-06, 01:35:04,VALID,999.334,VALID,0,VALID,94.0427,VALID,0,VALID,23.2719,VALID,28,VALID,0,
2011-12-06, 01:36:04,VALID,999.283,VALID,0,VALID,94.0351,VALID,0,VALID,23.2915,VALID,28,VALID,0,
2011-12-06, 01:37:04,VALID,999.258,VALID,0,VALID,94.0427,VALID,0,VALID,23.2915,VALID,28,VALID,0,
2011-12-06, 01:38:04,VALID,999.254,VALID,0,VALID,94.0808,VALID,0,VALID,23.2897,VALID,28,VALID,0,
2011-12-06, 01:39:04,VALID,999.241,VALID,0,VALID,94.0656,VALID,0,VALID,23.2915,VALID,28,VALID,0,
2011-12-06, 01:40:04,VALID,999.219,VALID,0,VALID,94.0885,VALID,0.104696,VALID,23.2702,VALID,28,VALID,0,
2011-12-06, 01:41:04,VALID,999.227,VALID,0,VALID,94.0961,VALID,0,VALID,23.2915,VALID,28,VALID,0,
2011-12-06, 01:42:04,VALID,999.2,VALID,0,VALID,94.0808,VALID,0,VALID,23.2915,VALID,28,VALID,0,
2011-12-06, 01:43:04,VALID,999.196,VALID,0,VALID,94.0961,VALID,0,VALID,23.2915,VALID,28,VALID,0,
2011-12-06, 01:44:04,VALID,999.134,VALID,0,VALID,94.0732,VALID,0,VALID,23.2915,VALID,28,VALID,0,
2011-12-06, 01:45:04,VALID,999.173,VALID,0,VALID,94.1037,VALID,0,VALID,23.3092,VALID,256,VALID,1.07539,
2011-12-06, 01:46:04,VALID,999.21,VALID,0,VALID,94.1037,VALID,0,VALID,23.389,VALID,256,VALID,1.06016,
2011-12-06, 01:47:04,VALID,999.165,VALID,0,VALID,94.1114,VALID,0,VALID,23.4067,VALID,263,VALID,0.385547,
2011-12-06, 01:48:04,VALID,999.166,VALID,0,VALID,94.1037,VALID,0,VALID,23.428,VALID,263,VALID,0.191406,
2011-12-06, 01:49:04,VALID,999.153,VALID,0,VALID,94.1037,VALID,0,VALID,23.4067,VALID,263,VALID,0,
2011-12-06, 01:50:04,VALID,999.16,VALID,0,VALID,94.0961,VALID,0,VALID,23.428,VALID,263,VALID,0.0015625,
2011-12-06, 01:51:04,VALID,999.109,VALID,0,VALID,94.0885,VALID,0,VALID,23.428,VALID,263,VALID,0,
2011-12-06, 01:52:04,VALID,999.101,VALID,0,VALID,94.0732,VALID,0,VALID,23.428,VALID,263,VALID,0,
2011-12-06, 01:53:04,VALID,999.072,VALID,0,VALID,94.0885,VALID,0,VALID,23.428,VALID,263,VALID,0,
2011-12-06, 01:54:04,VALID,999.078,VALID,0,VALID,94.058,VALID,0,VALID,23.4067,VALID,263,VALID,0,
2011-12-06, 01:55:04,VALID,999.062,VALID,0,VALID,94.0503,VALID,0,VALID,23.4085,VALID,263,VALID,0,
2011-12-06, 01:56:04,VALID,999.016,VALID,0,VALID,94.0427,VALID,0,VALID,23.428,VALID,263,VALID,0,
2011-12-06, 01:57:04,VALID,998.999,VALID,0,VALID,94.0503,VALID,0,VALID,23.428,VALID,263,VALID,0,
2011-12-06, 01:58:04,VALID,998.969,VALID,0,VALID,94.058,VALID,0,VALID,23.4475,VALID,263,VALID,0.225781,
2011-12-06, 01:59:04,VALID,998.985,VALID,0,VALID,94.0503,VALID,0,VALID,23.4263,VALID,263,VALID,0.336328,
2011-12-06, 02:00:04,VALID,998.951,VALID,0,VALID,94.0427,VALID,0,VALID,23.4475,VALID,263,VALID,0.300391,
2011-12-06, 02:01:04,VALID,998.937,VALID,0,VALID,94.0503,VALID,0,VALID,23.4475,VALID,263,VALID,0.697266,
2011-12-06, 02:02:04,VALID,998.933,VALID,0,VALID,94.0503,VALID,0,VALID,23.4475,VALID,123,VALID,0.570313,
2011-12-06, 02:03:04,VALID,998.941,VALID,0,VALID,94.0427,VALID,0,VALID,23.428,VALID,105,VALID,0.775,
2011-12-06, 02:04:04,VALID,998.937,VALID,0,VALID,94.0427,VALID,0,VALID,23.428,VALID,105,VALID,0.394531,
2011-12-06, 02:05:04,VALID,998.92,VALID,0,VALID,94.0274,VALID,0,VALID,23.428,VALID,105,VALID,0.414063,
2011-12-06, 02:06:04,VALID,998.9,VALID,0,VALID,94.0198,VALID,0,VALID,23.428,VALID,89,VALID,0.887109,
2011-12-06, 02:07:04,VALID,998.895,VALID,0,VALID,94.0274,VALID,0,VALID,23.4067,VALID,89,VALID,0.5125,
2011-12-06, 02:08:04,VALID,998.905,VALID,0,VALID,93.9893,VALID,0,VALID,23.428,VALID,80,VALID,0.999219,
2011-12-06, 02:09:04,VALID,998.884,VALID,0,VALID,93.9969,VALID,0,VALID,23.428,VALID,79,VALID,0.926172,
2011-12-06, 02:10:04,VALID,998.864,VALID,0,VALID,94.0045,VALID,0,VALID,23.389,VALID,79,VALID,0.967578,
2011-12-06, 02:11:04,VALID,998.849,VALID,0,VALID,93.9893,VALID,0,VALID,23.3695,VALID,101,VALID,1.15625,
2011-12-06, 02:12:04,VALID,998.859,VALID,0,VALID,93.9817,VALID,0,VALID,23.35,VALID,106,VALID,1.24141,
2011-12-06, 02:13:04,VALID,998.828,VALID,0,VALID,94.0122,VALID,0,VALID,23.3305,VALID,107,VALID,0.963672,
2011-12-06, 02:14:04,VALID,998.862,VALID,0,VALID,93.9893,VALID,0,VALID,23.311,VALID,106,VALID,0.896094,
2011-12-06, 02:15:04,VALID,998.826,VALID,0,VALID,94.0045,VALID,0,VALID,23.2897,VALID,106,VALID,0.791016,
2011-12-06, 02:16:04,VALID,998.842,VALID,0,VALID,94.0045,VALID,0,VALID,23.2915,VALID,106,VALID,0.395312,
2011-12-06, 02:17:04,VALID,998.813,VALID,0,VALID,94.0122,VALID,0,VALID,23.2719,VALID,106,VALID,0.243359,
2011-12-06, 02:18:04,VALID,998.807,VALID,0,VALID,94.0274,VALID,0,VALID,23.2719,VALID,106,VALID,0.403906,
2011-12-06, 02:19:04,VALID,998.75,VALID,0,VALID,94.0427,VALID,0,VALID,23.2312,VALID,106,VALID,0.699609,
2011-12-06, 02:20:04,VALID,998.746,VALID,0,VALID,94.0427,VALID,0,VALID,23.2329,VALID,106,VALID,0.573047,
2011-12-06, 02:21:04,VALID,998.712,VALID,0,VALID,94.0885,VALID,0,VALID,23.2117,VALID,106,VALID,0.280859,
2011-12-06, 02:22:04,VALID,998.67,VALID,0,VALID,94.0961,VALID,0,VALID,23.2134,VALID,99,VALID,0.711719,
2011-12-06, 02:23:04,VALID,998.653,VALID,0,VALID,94.0808,VALID,0,VALID,23.1939,VALID,99,VALID,0.589453,
2011-12-06, 02:24:04,VALID,998.67,VALID,0,VALID,94.119,VALID,0,VALID,23.1939,VALID,99,VALID,0.505078,
2011-12-06, 02:25:04,VALID,998.651,VALID,0,VALID,94.1114,VALID,0,VALID,23.1726,VALID,99,VALID,0.0617188,
2011-12-06, 02:26:04,VALID,998.611,VALID,0,VALID,94.1266,VALID,0,VALID,23.1744,VALID,99,VALID,0,
2011-12-06, 02:27:04,VALID,998.608,VALID,0,VALID,94.1419,VALID,0,VALID,23.1531,VALID,99,VALID,0,
2011-12-06, 02:28:04,VALID,998.626,VALID,0,VALID,94.1343,VALID,0,VALID,23.1531,VALID,99,VALID,0,
2011-12-06, 02:29:04,VALID,998.587,VALID,0,VALID,94.1571,VALID,0,VALID,23.1549,VALID,99,VALID,0,
2011-12-06, 02:30:04,VALID,998.551,VALID,0,VALID,94.1724,VALID,0,VALID,23.1354,VALID,99,VALID,0,
2011-12-06, 02:31:04,VALID,998.543,VALID,0,VALID,94.1724,VALID,0,VALID,23.1354,VALID,99,VALID,0,
2011-12-06, 02:32:04,VALID,998.559,VALID,0,VALID,94.1877,VALID,0,VALID,23.1549,VALID,99,VALID,0.00585938,
2011-12-06, 02:33:04,VALID,998.486,VALID,0,VALID,94.2105,VALID,0,VALID,23.1549,VALID,123,VALID,0.904688,
2011-12-06, 02:34:04,VALID,998.467,VALID,0,VALID,94.2182,VALID,0,VALID,23.1744,VALID,123,VALID,0.7875,
2011-12-06, 02:35:04,VALID,998.436,VALID,0,VALID,94.2105,VALID,0,VALID,23.1744,VALID,123,VALID,0.676172,
2011-12-06, 02:36:04,VALID,998.393,VALID,0,VALID,94.2411,VALID,0,VALID,23.1939,VALID,123,VALID,0.836719,
2011-12-06, 02:37:04,VALID,998.362,VALID,0,VALID,94.2487,VALID,0,VALID,23.2134,VALID,137,VALID,1.1043,
2011-12-06, 02:38:04,VALID,998.326,VALID,0,VALID,94.2411,VALID,0,VALID,23.2134,VALID,111,VALID,0.837109,
2011-12-06, 02:39:04,VALID,998.316,VALID,0,VALID,94.2334,VALID,0,VALID,23.2117,VALID,128,VALID,1.29844,
2011-12-06, 02:40:04,VALID,998.316,VALID,0,VALID,94.2563,VALID,0,VALID,23.2312,VALID,107,VALID,1.53672,
2011-12-06, 02:41:04,VALID,998.311,VALID,0,VALID,94.2487,VALID,0,VALID,23.2507,VALID,106,VALID,1.40703,
2011-12-06, 02:42:04,VALID,998.31,VALID,0,VALID,94.2563,VALID,0,VALID,23.2702,VALID,117,VALID,1.1082,
2011-12-06, 02:43:04,VALID,998.288,VALID,0,VALID,94.2563,VALID,0,VALID,23.2915,VALID,113,VALID,0.905859,
2011-12-06, 02:44:04,VALID,998.293,VALID,0,VALID,94.2716,VALID,0,VALID,23.2915,VALID,112,VALID,0.730469,
2011-12-06, 02:45:04,VALID,998.314,VALID,0,VALID,94.2411,VALID,0,VALID,23.2915,VALID,116,VALID,0.217969,
2011-12-06, 02:46:04,VALID,998.295,VALID,0,VALID,94.2563,VALID,0,VALID,23.2702,VALID,116,VALID,0,
2011-12-06, 02:47:04,VALID,998.333,VALID,0,VALID,94.264,VALID,0,VALID,23.2719,VALID,116,VALID,0.114844,
2011-12-06, 02:48:04,VALID,998.3,VALID,0,VALID,94.2716,VALID,0,VALID,23.2702,VALID,117,VALID,0.0398437,
2011-12-06, 02:49:04,VALID,998.287,VALID,0,VALID,94.2792,VALID,0,VALID,23.2507,VALID,116,VALID,0.00820312,
2011-12-06, 02:50:04,VALID,998.241,VALID,0,VALID,94.2792,VALID,0,VALID,23.2702,VALID,116,VALID,0,
2011-12-06, 02:51:04,VALID,998.216,VALID,0,VALID,94.264,VALID,0,VALID,23.2719,VALID,89,VALID,0.00625,
2011-12-06, 02:52:04,VALID,998.225,VALID,0,VALID,94.2945,VALID,0,VALID,23.2312,VALID,9,VALID,0.762891,
2011-12-06, 02:53:04,VALID,998.214,VALID,0,VALID,94.3097,VALID,0,VALID,23.2117,VALID,9,VALID,0.345313,
2011-12-06, 02:54:04,VALID,998.174,VALID,0,VALID,94.264,VALID,0,VALID,23.2312,VALID,63,VALID,0.908203,
2011-12-06, 02:55:04,VALID,998.14,VALID,0,VALID,94.264,VALID,0,VALID,23.2507,VALID,96,VALID,1.6543,
2011-12-06, 02:56:04,VALID,998.124,VALID,0,VALID,94.2563,VALID,0,VALID,23.311,VALID,106,VALID,1.64492,
2011-12-06, 02:57:04,VALID,998.153,VALID,0,VALID,94.264,VALID,0,VALID,23.3287,VALID,99,VALID,1.10117,
2011-12-06, 02:58:04,VALID,998.16,VALID,0,VALID,94.2563,VALID,0,VALID,23.3482,VALID,81,VALID,0.250781,
2011-12-06, 02:59:04,VALID,998.133,VALID,0,VALID,94.2258,VALID,0,VALID,23.3287,VALID,23,VALID,0.01875,
2011-12-06, 03:00:04,VALID,998.118,VALID,0,VALID,94.2334,VALID,0,VALID,23.3305,VALID,349,VALID,0.864453,
2011-12-06, 03:01:04,VALID,998.114,VALID,0,VALID,94.2334,VALID,0,VALID,23.3092,VALID,3,VALID,1.15508,
2011-12-06, 03:02:04,VALID,998.115,VALID,0,VALID,94.1877,VALID,0,VALID,23.3872,VALID,41,VALID,0.844531,
2011-12-06, 03:03:04,VALID,998.148,VALID,0,VALID,94.1724,VALID,0,VALID,23.4263,VALID,54,VALID,0.974609,
2011-12-06, 03:04:04,VALID,998.145,VALID,0,VALID,94.1343,VALID,0,VALID,23.4458,VALID,34,VALID,1.12773,
2011-12-06, 03:05:04,VALID,998.16,VALID,0,VALID,94.0427,VALID,0,VALID,23.4458,VALID,33,VALID,0.847266,
2011-12-06, 03:06:04,VALID,998.142,VALID,0,VALID,94.0122,VALID,0.104696,VALID,23.4263,VALID,33,VALID,0.741016,
2011-12-06, 03:07:04,VALID,998.145,VALID,0,VALID,93.9588,VALID,0,VALID,23.4067,VALID,18,VALID,0.601953,
2011-12-06, 03:08:04,VALID,998.125,VALID,0,VALID,93.8977,VALID,0,VALID,23.3677,VALID,18,VALID,0.415625,
2011-12-06, 03:09:04,VALID,998.135,VALID,0,VALID,93.852,VALID,0,VALID,23.3482,VALID,18,VALID,0.265234,
2011-12-06, 03:10:04,VALID,998.111,VALID,0,VALID,93.8443,VALID,0,VALID,23.3305,VALID,18,VALID,0,
2011-12-06, 03:11:04,VALID,998.085,VALID,0,VALID,93.8138,VALID,0,VALID,23.2897,VALID,18,VALID,0,
2011-12-06, 03:12:04,VALID,998.06,VALID,0,VALID,93.8214,VALID,0,VALID,23.2719,VALID,18,VALID,0,
2011-12-06, 03:13:04,VALID,998.077,VALID,0,VALID,93.8214,VALID,0,VALID,23.2507,VALID,18,VALID,0,
2011-12-06, 03:14:04,VALID,998.072,VALID,0,VALID,93.8367,VALID,0,VALID,23.2507,VALID,18,VALID,0.0539063,
2011-12-06, 03:15:04,VALID,998.053,VALID,0,VALID,93.8596,VALID,0,VALID,23.2524,VALID,18,VALID,0,
2011-12-06, 03:16:04,VALID,998.051,VALID,0,VALID,93.8901,VALID,0,VALID,23.2719,VALID,18,VALID,0,
2011-12-06, 03:17:04,VALID,998.049,VALID,0,VALID,93.9054,VALID,0,VALID,23.2507,VALID,18,VALID,0.40625,
2011-12-06, 03:18:04,VALID,998.01,VALID,0,VALID,93.9359,VALID,0,VALID,23.2702,VALID,18,VALID,0,
2011-12-06, 03:19:04,VALID,997.993,VALID,0,VALID,93.9435,VALID,0,VALID,23.2507,VALID,18,VALID,0,
2011-12-06, 03:20:04,VALID,997.979,VALID,0,VALID,93.9435,VALID,0,VALID,23.2524,VALID,18,VALID,0,
2011-12-06, 03:21:04,VALID,997.947,VALID,0,VALID,93.9435,VALID,0,VALID,23.2117,VALID,18,VALID,0,
2011-12-06, 03:22:04,VALID,997.957,VALID,0,VALID,93.9588,VALID,0,VALID,23.1939,VALID,18,VALID,0,
2011-12-06, 03:23:04,VALID,997.96,VALID,0,VALID,93.9435,VALID,0,VALID,23.1531,VALID,18,VALID,0,
2011-12-06, 03:24:04,VALID,997.945,VALID,0,VALID,93.974,VALID,0,VALID,23.1336,VALID,18,VALID,0,
2011-12-06, 03:25:04,VALID,997.945,VALID,0,VALID,93.9893,VALID,0,VALID,23.1549,VALID,18,VALID,0,
2011-12-06, 03:26:04,VALID,997.926,VALID,0,VALID,93.9893,VALID,0,VALID,23.0946,VALID,18,VALID,0,
2011-12-06, 03:27:04,VALID,997.926,VALID,0,VALID,94.0045,VALID,0,VALID,23.0946,VALID,18,VALID,0,
2011-12-06, 03:28:04,VALID,997.914,VALID,0,VALID,94.0351,VALID,0,VALID,23.0751,VALID,18,VALID,0,
2011-12-06, 03:29:04,VALID,997.952,VALID,0,VALID,94.0427,VALID,0,VALID,23.0751,VALID,18,VALID,0,
2011-12-06, 03:30:04,VALID,997.96,VALID,0,VALID,94.0656,VALID,0,VALID,23.0556,VALID,18,VALID,0,
2011-12-06, 03:31:04,VALID,997.933,VALID,0,VALID,94.0961,VALID,0.104696,VALID,23.0361,VALID,18,VALID,0,
2011-12-06, 03:32:04,VALID,997.954,VALID,0,VALID,94.119,VALID,0,VALID,23.0166,VALID,18,VALID,0,
2011-12-06, 03:33:04,VALID,997.934,VALID,0,VALID,94.1114,VALID,0,VALID,22.9971,VALID,18,VALID,0,
2011-12-06, 03:34:04,VALID,997.934,VALID,0,VALID,94.1266,VALID,0,VALID,22.9971,VALID,18,VALID,0,
2011-12-06, 03:35:04,VALID,997.936,VALID,0,VALID,94.1419,VALID,0,VALID,22.9776,VALID,18,VALID,0,
2011-12-06, 03:36:04,VALID,997.901,VALID,0,VALID,94.1495,VALID,0,VALID,22.9776,VALID,18,VALID,0,
2011-12-06, 03:37:04,VALID,997.896,VALID,0,VALID,94.1724,VALID,0,VALID,22.9971,VALID,18,VALID,0.235938,
2011-12-06, 03:38:04,VALID,997.899,VALID,0,VALID,94.18,VALID,0,VALID,23.0166,VALID,18,VALID,0.028125,
2011-12-06, 03:39:04,VALID,997.88,VALID,0,VALID,94.1953,VALID,0.104696,VALID,23.0166,VALID,18,VALID,0,
2011-12-06, 03:40:04,VALID,997.873,VALID,0,VALID,94.2105,VALID,0,VALID,22.9971,VALID,18,VALID,0,
2011-12-06, 03:41:04,VALID,997.874,VALID,0,VALID,94.2334,VALID,0,VALID,23.0166,VALID,18,VALID,0,
2011-12-06, 03:42:04,VALID,997.88,VALID,0,VALID,94.2487,VALID,0.104696,VALID,22.9581,VALID,18,VALID,0.00351562,
2011-12-06, 03:43:04,VALID,997.892,VALID,0,VALID,94.2411,VALID,0,VALID,22.9581,VALID,18,VALID,0.503516,
2011-12-06, 03:44:04,VALID,997.892,VALID,0,VALID,94.264,VALID,0,VALID,22.9581,VALID,22,VALID,0.782031,
2011-12-06, 03:45:04,VALID,997.917,VALID,0,VALID,94.2716,VALID,0,VALID,22.9793,VALID,16,VALID,1.07656,
2011-12-06, 03:46:04,VALID,997.949,VALID,0,VALID,94.2792,VALID,0,VALID,22.9598,VALID,11,VALID,0.596484,
2011-12-06, 03:47:04,VALID,997.972,VALID,0,VALID,94.2868,VALID,0,VALID,22.9013,VALID,11,VALID,0.867188,
2011-12-06, 03:48:04,VALID,997.983,VALID,0,VALID,94.2945,VALID,0,VALID,22.8605,VALID,12,VALID,1.04492,
2011-12-06, 03:49:04,VALID,997.992,VALID,0,VALID,94.3097,VALID,0,VALID,22.802,VALID,12,VALID,0.820313,